| time (UTC) | temp C | wind direction | speed KPH | gust KPH | rain 1hr cm | rain 24hr cm | rain mn cm | humidity % | barometer mb |
| 20260906051532 | 24 | 221 | 0.0 | 1.6 | 0.00 | 0.00 | 0.00 | 46 | 1018.4 |
| 20260906050037 | 24 | 221 | 0.0 | 6.4 | 0.00 | 0.00 | 0.00 | 46 | 1018.2 |
| 20260906044535 | 23 | 221 | 3.2 | 6.4 | 0.00 | 0.00 | 0.00 | 47 | 1018.0 |
| 20260906043027 | 23 | 221 | 0.0 | 4.8 | 0.00 | 0.00 | 0.00 | 47 | 1018.0 |
| 20260906041531 | 23 | 221 | 0.0 | 3.2 | 0.00 | 0.00 | 0.00 | 48 | 1017.9 |
| 20260906040028 | 23 | 221 | 0.0 | 1.6 | 0.00 | 0.00 | 0.00 | 48 | 1017.8 |
| 20260906034527 | 23 | 221 | 0.0 | 4.8 | 0.00 | 0.00 | 0.00 | 48 | 1017.7 |
| 20260906033036 | 23 | 221 | 0.0 | 4.8 | 0.00 | 0.00 | 0.00 | 49 | 1017.6 |
| 20260906031526 | 23 | 221 | 0.0 | 3.2 | 0.00 | 0.00 | 0.00 | 50 | 1017.6 |
| 20260906030021 | 23 | 221 | 0.0 | 3.2 | 0.00 | 0.00 | 0.00 | 50 | 1017.6 |
| 20260906024521 | 23 | 221 | 0.0 | 0.0 | 0.00 | 0.00 | 0.00 | 52 | 1017.6 |
| 20260906023024 | 23 | 221 | 0.0 | 0.0 | 0.00 | 0.00 | 0.00 | 53 | 1017.5 |
| 20260906021518 | 23 | 221 | 0.0 | 0.0 | 0.00 | 0.00 | 0.00 | 52 | 1017.5 |
| 20260906020015 | 24 | 221 | 0.0 | 3.2 | 0.00 | 0.00 | 0.00 | 51 | 1017.3 |
| 20260906014513 | 24 | 221 | 0.0 | 1.6 | 0.00 | 0.00 | 0.00 | 51 | 1017.5 |
| 20260906013013 | 25 | 221 | 0.0 | 3.2 | 0.00 | 0.00 | 0.00 | 49 | 1017.5 |
| 20260906011509 | 25 | 221 | 3.2 | 4.8 | 0.00 | 0.00 | 0.00 | 48 | 1017.5 |
| 20260906010009 | 25 | 221 | 1.6 | 4.8 | 0.00 | 0.00 | 0.00 | 48 | 1017.5 |
| 20260906004509 | 25 | 221 | 3.2 | 4.8 | 0.00 | 0.00 | 0.00 | 48 | 1017.5 |
| 20260906003008 | 25 | 221 | 0.0 | 3.2 | 0.00 | 0.00 | 0.00 | 47 | 1017.4 |
| 20260906001505 | 25 | 221 | 0.0 | 3.2 | 0.00 | 0.00 | 0.00 | 47 | 1017.4 |
| 20260906000005 | 25 | 221 | 0.0 | 1.6 | 0.00 | 0.00 | 0.00 | 45 | 1017.5 |
| 20260905234504 | 26 | 221 | 0.0 | 4.8 | 0.00 | 0.00 | 0.00 | 44 | 1017.6 |
| 20260905233101 | 26 | 221 | 1.6 | 4.8 | 0.00 | 0.00 | 0.00 | 43 | 1017.6 |
| 20260905231600 | 26 | 221 | 0.0 | 6.4 | 0.00 | 0.00 | 0.00 | 42 | 1017.6 |
| 20260905230057 | 26 | 221 | 0.0 | 3.2 | 0.00 | 0.00 | 0.00 | 40 | 1017.7 |
| 20260905224605 | 26 | 205 | 1.6 | 6.4 | 0.00 | 0.00 | 0.00 | 39 | 1017.7 |
| 20260905223055 | 26 | 239 | 1.6 | 9.7 | 0.00 | 0.00 | 0.00 | 38 | 1017.6 |
| 20260905221602 | 26 | 229 | 0.0 | 6.4 | 0.00 | 0.00 | 0.00 | 38 | 1017.6 |
| 20260905220104 | 26 | 237 | 0.0 | 4.8 | 0.00 | 0.00 | 0.00 | 38 | 1017.5 |
| 20260905214551 | 26 | 229 | 0.0 | 4.8 | 0.00 | 0.00 | 0.00 | 38 | 1017.4 |
| 20260905213051 | 26 | 234 | 0.0 | 3.2 | 0.00 | 0.00 | 0.00 | 39 | 1017.4 |
| 20260905211603 | 26 | 233 | 0.0 | 0.0 | 0.00 | 0.00 | 0.00 | 41 | 1017.5 |
| 20260905210055 | 26 | 233 | 0.0 | 1.6 | 0.00 | 0.00 | 0.00 | 40 | 1017.5 |
| 20260905204556 | 27 | 233 | 0.0 | 3.2 | 0.00 | 0.00 | 0.00 | 38 | 1017.5 |
| 20260905203111 | 27 | 248 | 3.2 | 9.7 | 0.00 | 0.00 | 0.00 | 37 | 1017.4 |
| 20260905201547 | 27 | 233 | 0.0 | 1.6 | 0.00 | 0.00 | 0.00 | 40 | 1017.4 |
| 20260905200054 | 27 | 233 | 0.0 | 6.4 | 0.00 | 0.00 | 0.00 | 39 | 1017.4 |
| 20260905194546 | 28 | 198 | 3.2 | 9.7 | 0.00 | 0.00 | 0.00 | 39 | 1017.4 |
| 20260905193045 | 28 | 134 | 0.0 | 4.8 | 0.00 | 0.00 | 0.00 | 40 | 1017.4 |
| 20260905191544 | 29 | 135 | 1.6 | 8.0 | 0.00 | 0.00 | 0.00 | 38 | 1017.4 |
| 20260905190044 | 29 | 142 | 1.6 | 4.8 | 0.00 | 0.00 | 0.00 | 38 | 1017.3 |
| 20260905184543 | 29 | 109 | 0.0 | 1.6 | 0.00 | 0.00 | 0.00 | 38 | 1017.3 |
| 20260905183043 | 29 | 109 | 0.0 | 4.8 | 0.00 | 0.00 | 0.00 | 38 | 1017.2 |
| 20260905181559 | 29 | 108 | 0.0 | 0.0 | 0.00 | 0.00 | 0.00 | 39 | 1017.0 |
| 20260905180042 | 30 | 108 | 0.0 | 3.2 | 0.00 | 0.00 | 0.00 | 37 | 1016.8 |
| 20260905174549 | 30 | 108 | 0.0 | 3.2 | 0.00 | 0.00 | 0.00 | 36 | 1016.6 |
| 20260905173041 | 30 | 108 | 0.0 | 0.0 | 0.00 | 0.00 | 0.00 | 37 | 1016.4 |
| 20260905171544 | 31 | 108 | 0.0 | 6.4 | 0.00 | 0.00 | 0.00 | 37 | 1016.4 |
| 20260905170041 | 31 | 136 | 0.0 | 4.8 | 0.00 | 0.00 | 0.00 | 37 | 1016.3 |
| 20260905164539 | 32 | 136 | 0.0 | 1.6 | 0.00 | 0.00 | 0.00 | 34 | 1016.3 |
| 20260905163039 | 32 | 117 | 0.0 | 4.8 | 0.00 | 0.00 | 0.00 | 31 | 1016.2 |
| 20260905161538 | 33 | 142 | 1.6 | 6.4 | 0.00 | 0.00 | 0.00 | 31 | 1016.3 |
| 20260905160106 | 33 | 9 | 1.6 | 8.0 | 0.00 | 0.00 | 0.00 | 29 | 1016.2 |
| 20260905154539 | 33 | 348 | 0.0 | 12.9 | 0.00 | 0.00 | 0.00 | 28 | 1016.3 |
| 20260905153035 | 34 | 30 | 0.0 | 8.0 | 0.00 | 0.00 | 0.00 | 27 | 1016.3 |
| 20260905151536 | 34 | 26 | 3.2 | 16.1 | 0.00 | 0.00 | 0.00 | 28 | 1016.3 |
| 20260905150034 | 34 | 20 | 1.6 | 14.5 | 0.00 | 0.00 | 0.00 | 28 | 1016.5 |
| 20260905144533 | 34 | 46 | 3.2 | 9.7 | 0.00 | 0.00 | 0.00 | 29 | 1016.5 |
| 20260905143032 | 34 | 43 | 1.6 | 16.1 | 0.00 | 0.00 | 0.00 | 29 | 1016.6 |
| 20260905141533 | 34 | 40 | 8.0 | 20.9 | 0.00 | 0.00 | 0.00 | 28 | 1016.6 |
| 20260905140030 | 33 | 36 | 3.2 | 16.1 | 0.00 | 0.00 | 0.00 | 29 | 1016.7 |
| 20260905134530 | 33 | 39 | 9.7 | 19.3 | 0.00 | 0.00 | 0.00 | 32 | 1016.7 |
| 20260905133029 | 33 | 38 | 8.0 | 22.5 | 0.00 | 0.00 | 0.00 | 34 | 1016.6 |
| 20260905131527 | 34 | 54 | 9.7 | 20.9 | 0.00 | 0.00 | 0.00 | 32 | 1016.7 |
| 20260905130026 | 34 | 49 | 3.2 | 14.5 | 0.00 | 0.00 | 0.00 | 31 | 1016.8 |
| 20260905124536 | 34 | 39 | 11.3 | 17.7 | 0.00 | 0.00 | 0.00 | 29 | 1017.0 |
| 20260905123022 | 35 | 41 | 9.7 | 19.3 | 0.00 | 0.00 | 0.00 | 26 | 1017.2 |
| 20260905121521 | 35 | 37 | 8.0 | 16.1 | 0.00 | 0.00 | 0.00 | 26 | 1017.2 |
| 20260905120019 | 34 | 26 | 9.7 | 20.9 | 0.00 | 0.00 | 0.00 | 28 | 1017.4 |
| 20260905114518 | 34 | 45 | 9.7 | 19.3 | 0.00 | 0.00 | 0.00 | 30 | 1017.6 |
| 20260905113018 | 35 | 29 | 9.7 | 17.7 | 0.00 | 0.00 | 0.00 | 29 | 1017.6 |
| 20260905111516 | 35 | 51 | 8.0 | 19.3 | 0.00 | 0.00 | 0.00 | 29 | 1017.6 |
| 20260905110015 | 35 | 39 | 3.2 | 19.3 | 0.00 | 0.00 | 0.00 | 29 | 1017.7 |
| 20260905104514 | 35 | 39 | 6.4 | 19.3 | 0.00 | 0.00 | 0.00 | 27 | 1017.7 |
| 20260905103019 | 35 | 26 | 4.8 | 16.1 | 0.00 | 0.00 | 0.00 | 26 | 1017.7 |
| 20260905101512 | 36 | 31 | 4.8 | 12.9 | 0.00 | 0.00 | 0.00 | 25 | 1017.9 |
| 20260905100009 | 36 | 26 | 0.0 | 6.4 | 0.00 | 0.00 | 0.00 | 25 | 1018.0 |
| 20260905094510 | 36 | 136 | 1.6 | 9.7 | 0.00 | 0.00 | 0.00 | 23 | 1018.2 |
| 20260905093105 | 35 | 41 | 1.6 | 4.8 | 0.00 | 0.00 | 0.00 | 24 | 1018.2 |
| 20260905091623 | 34 | 41 | 1.6 | 8.0 | 0.00 | 0.00 | 0.00 | 25 | 1018.3 |
| 20260905090001 | 35 | 5 | 3.2 | 6.4 | 0.00 | 0.00 | 0.00 | 24 | 1018.4 |
| 20260905084608 | 34 | 49 | 0.0 | 8.0 | 0.00 | 0.00 | 0.00 | 26 | 1018.5 |
| 20260905083058 | 34 | 203 | 1.6 | 4.8 | 0.00 | 0.00 | 0.00 | 26 | 1018.5 |
| 20260905081553 | 33 | 231 | 1.6 | 6.4 | 0.00 | 0.00 | 0.00 | 26 | 1018.5 |
| 20260905080054 | 33 | 230 | 0.0 | 3.2 | 0.00 | 0.00 | 0.00 | 29 | 1018.4 |
| 20260905074547 | 32 | 227 | 0.0 | 3.2 | 0.00 | 0.00 | 0.00 | 31 | 1018.4 |
| 20260905073051 | 31 | 227 | 1.6 | 4.8 | 0.00 | 0.00 | 0.00 | 31 | 1018.4 |
| 20260905071541 | 31 | 227 | 0.0 | 1.6 | 0.00 | 0.00 | 0.00 | 35 | 1018.4 |
| 20260905070037 | 29 | 227 | 0.0 | 3.2 | 0.00 | 0.00 | 0.00 | 38 | 1018.3 |
| 20260905064533 | 28 | 227 | 0.0 | 4.8 | 0.00 | 0.00 | 0.00 | 40 | 1018.2 |
| 20260905063028 | 27 | 227 | 0.0 | 4.8 | 0.00 | 0.00 | 0.00 | 41 | 1018.2 |
| 20260905061524 | 25 | 227 | 1.6 | 8.0 | 0.00 | 0.00 | 0.00 | 44 | 1018.3 |
| 20260905060020 | 23 | 226 | 1.6 | 8.0 | 0.00 | 0.00 | 0.00 | 46 | 1018.2 |
| 20260905054519 | 22 | 226 | 1.6 | 6.4 | 0.00 | 0.00 | 0.00 | 49 | 1018.3 |
| 20260905053015 | 22 | 226 | 0.0 | 4.8 | 0.00 | 0.00 | 0.00 | 50 | 1018.3 |